Year,Month,Day,Hour,Minute,Value (Times are PST for temperature in C)
2019,02,07,00,00,-3.30
2019,02,07,00,01,-3.30
2019,02,07,00,02,-3.30
2019,02,07,00,03,-3.30
2019,02,07,00,04,-3.30
2019,02,07,00,05,-3.30
2019,02,07,00,06,-3.30
2019,02,07,00,07,-3.30
2019,02,07,00,08,-3.40
2019,02,07,00,09,-3.40
2019,02,07,00,10,-3.40
2019,02,07,00,11,-3.40
2019,02,07,00,12,-3.40
2019,02,07,00,13,-3.40
2019,02,07,00,14,-3.40
2019,02,07,00,15,-3.40
2019,02,07,00,16,-3.40
2019,02,07,00,17,-3.40
2019,02,07,00,18,-3.40
2019,02,07,00,19,-3.40
2019,02,07,00,20,-3.50
2019,02,07,00,21,-3.50
2019,02,07,00,22,-3.50
2019,02,07,00,23,-3.50
2019,02,07,00,24,-3.40
2019,02,07,00,25,-3.40
2019,02,07,00,26,-3.40
2019,02,07,00,27,-3.50
2019,02,07,00,28,-3.50
2019,02,07,00,29,-3.50
2019,02,07,00,30,-3.50
2019,02,07,00,31,-3.40
2019,02,07,00,32,-3.50
2019,02,07,00,33,-3.40
2019,02,07,00,34,-3.50
2019,02,07,00,35,-3.50
2019,02,07,00,36,-3.50
2019,02,07,00,37,-3.40
2019,02,07,00,38,-3.40
2019,02,07,00,39,-3.40
2019,02,07,00,40,-3.40
2019,02,07,00,41,-3.40
2019,02,07,00,42,-3.40
2019,02,07,00,43,-3.40
2019,02,07,00,44,-3.40
2019,02,07,00,45,-3.40
2019,02,07,00,46,-3.30
2019,02,07,00,47,-3.40
2019,02,07,00,48,-3.40
2019,02,07,00,49,-3.40
2019,02,07,00,50,-3.40
2019,02,07,00,51,-3.40
2019,02,07,00,52,-3.40
2019,02,07,00,53,-3.40
2019,02,07,00,54,-3.40
2019,02,07,00,55,-3.40
2019,02,07,00,56,-3.30
2019,02,07,00,57,-3.40
2019,02,07,00,58,-3.30
2019,02,07,00,59,-3.30
2019,02,07,01,00,-3.30
2019,02,07,01,01,-3.30
2019,02,07,01,02,-3.30
2019,02,07,01,03,-3.30
2019,02,07,01,04,-3.30
2019,02,07,01,05,-3.30
2019,02,07,01,06,-3.30
2019,02,07,01,07,-3.30
2019,02,07,01,08,-3.30
2019,02,07,01,09,-3.30
2019,02,07,01,10,-3.30
2019,02,07,01,11,-3.30
2019,02,07,01,12,-3.30
2019,02,07,01,13,-3.30
2019,02,07,01,14,-3.30
2019,02,07,01,15,-3.30
2019,02,07,01,16,-3.20
2019,02,07,01,17,-3.20
2019,02,07,01,18,-3.20
2019,02,07,01,19,-3.20
2019,02,07,01,20,-3.20
2019,02,07,01,21,-3.20
2019,02,07,01,22,-3.20
2019,02,07,01,23,-3.20
2019,02,07,01,24,-3.20
2019,02,07,01,25,-3.10
2019,02,07,01,26,-3.10
2019,02,07,01,27,-3.10
2019,02,07,01,28,-3.10
2019,02,07,01,29,-3.10
2019,02,07,01,30,-3.10
2019,02,07,01,31,-3.10
2019,02,07,01,32,-3.10
2019,02,07,01,33,-3.10
2019,02,07,01,34,-3.10
2019,02,07,01,35,-3.10
2019,02,07,01,36,-3.10
2019,02,07,01,37,-3.10
2019,02,07,01,38,-3.10
2019,02,07,01,39,-3.10
2019,02,07,01,40,-3.10
2019,02,07,01,41,-3.10
2019,02,07,01,42,-3.10
2019,02,07,01,43,-3.10
2019,02,07,01,44,-3.20
2019,02,07,01,45,-3.20
2019,02,07,01,46,-3.20
2019,02,07,01,47,-3.20
2019,02,07,01,48,-3.20
2019,02,07,01,49,-3.20
2019,02,07,01,50,-3.20
2019,02,07,01,51,-3.20
2019,02,07,01,52,-3.20
2019,02,07,01,53,-3.20
2019,02,07,01,54,-3.20
2019,02,07,01,55,-3.20
2019,02,07,01,56,-3.20
2019,02,07,01,57,-3.20
2019,02,07,01,58,-3.20
2019,02,07,01,59,-3.20
2019,02,07,02,00,-3.20
2019,02,07,02,01,-3.20
2019,02,07,02,02,-3.30
2019,02,07,02,03,-3.30
2019,02,07,02,04,-3.30
2019,02,07,02,05,-3.30
2019,02,07,02,06,-3.30
2019,02,07,02,07,-3.30
2019,02,07,02,08,-3.30
2019,02,07,02,09,-3.40
2019,02,07,02,10,-3.40
2019,02,07,02,11,-3.40
2019,02,07,02,12,-3.40
2019,02,07,02,13,-3.40
2019,02,07,02,14,-3.40
2019,02,07,02,15,-3.40
2019,02,07,02,16,-3.40
2019,02,07,02,17,-3.40
2019,02,07,02,18,-3.40
2019,02,07,02,19,-3.40
2019,02,07,02,20,-3.40
2019,02,07,02,21,-3.40
2019,02,07,02,22,-3.40
2019,02,07,02,23,-3.40
2019,02,07,02,24,-3.40
2019,02,07,02,25,-3.40
2019,02,07,02,26,-3.40
2019,02,07,02,27,-3.40
2019,02,07,02,28,-3.40
2019,02,07,02,29,-3.40
2019,02,07,02,30,-3.40
2019,02,07,02,31,-3.40
2019,02,07,02,32,-3.40
2019,02,07,02,33,-3.30
2019,02,07,02,34,-3.40
2019,02,07,02,35,-3.30
2019,02,07,02,36,-3.30
2019,02,07,02,37,-3.30
2019,02,07,02,38,-3.30
2019,02,07,02,39,-3.30
2019,02,07,02,40,-3.30
2019,02,07,02,41,-3.30
2019,02,07,02,42,-3.20
2019,02,07,02,43,-3.20
2019,02,07,02,44,-3.20
2019,02,07,02,45,-3.20
2019,02,07,02,46,-3.20
2019,02,07,02,47,-3.20
2019,02,07,02,48,-3.20
2019,02,07,02,49,-3.10
2019,02,07,02,50,-3.10
2019,02,07,02,51,-3.10
2019,02,07,02,52,-3.10
2019,02,07,02,53,-3.10
2019,02,07,02,54,-3.10
2019,02,07,02,55,-3.10
2019,02,07,02,56,-3.10
2019,02,07,02,57,-3.10
2019,02,07,02,58,-3.10
2019,02,07,02,59,-3.10
2019,02,07,03,00,-3.10
2019,02,07,03,01,-3.10
2019,02,07,03,02,-3.10
2019,02,07,03,03,-3.10
2019,02,07,03,04,-3.10
2019,02,07,03,05,-3.10
2019,02,07,03,06,-3.10
2019,02,07,03,07,-3.10
2019,02,07,03,08,-3.10
2019,02,07,03,09,-3.10
2019,02,07,03,10,-3.10
2019,02,07,03,11,-3.10
2019,02,07,03,12,-3.10
2019,02,07,03,13,-3.10
2019,02,07,03,14,-3.00
2019,02,07,03,15,-3.00
2019,02,07,03,16,-3.00
2019,02,07,03,17,-3.00
2019,02,07,03,18,-3.00
2019,02,07,03,19,-2.90
2019,02,07,03,20,-2.90
2019,02,07,03,21,-2.90
2019,02,07,03,22,-2.90
2019,02,07,03,23,-2.90
2019,02,07,03,24,-2.80
2019,02,07,03,25,-2.80
2019,02,07,03,26,-2.80
2019,02,07,03,27,-2.80
2019,02,07,03,28,-2.80
2019,02,07,03,29,-2.80
2019,02,07,03,30,-2.80
2019,02,07,03,31,-2.80
2019,02,07,03,32,-2.80
2019,02,07,03,33,-2.80
2019,02,07,03,34,-2.80
2019,02,07,03,35,-2.80
2019,02,07,03,36,-2.80
2019,02,07,03,37,-2.80
2019,02,07,03,38,-2.80
2019,02,07,03,39,-2.80
2019,02,07,03,40,-2.80
2019,02,07,03,41,-2.80
2019,02,07,03,42,-2.80
2019,02,07,03,43,-2.80
2019,02,07,03,44,-2.80
2019,02,07,03,45,-2.80
2019,02,07,03,46,-2.80
2019,02,07,03,47,-2.80
2019,02,07,03,48,-2.80
2019,02,07,03,49,-2.80
2019,02,07,03,50,-2.80
2019,02,07,03,51,-2.80
2019,02,07,03,52,-2.80
2019,02,07,03,53,-2.80
2019,02,07,03,54,-2.80
2019,02,07,03,55,-2.80
2019,02,07,03,56,-2.80
2019,02,07,03,57,-2.90
2019,02,07,03,58,-2.90
2019,02,07,03,59,-2.90
2019,02,07,04,00,-2.90
2019,02,07,04,01,-2.90
2019,02,07,04,02,-2.90
2019,02,07,04,03,-2.90
2019,02,07,04,04,-2.90
2019,02,07,04,05,-2.90
2019,02,07,04,06,-2.90
2019,02,07,04,07,-2.90
2019,02,07,04,08,-3.00
2019,02,07,04,09,-3.00
2019,02,07,04,10,-3.00
2019,02,07,04,11,-3.00
2019,02,07,04,12,-3.00
2019,02,07,04,13,-3.00
2019,02,07,04,14,-3.00
2019,02,07,04,15,-3.00
2019,02,07,04,16,-3.00
2019,02,07,04,17,-3.00
2019,02,07,04,18,-3.00
2019,02,07,04,19,-3.00
2019,02,07,04,20,-3.00
2019,02,07,04,21,-3.00
2019,02,07,04,22,-3.00
2019,02,07,04,23,-3.00
2019,02,07,04,24,-3.00
2019,02,07,04,25,-3.00
2019,02,07,04,26,-3.00
2019,02,07,04,27,-3.00
2019,02,07,04,28,-3.00
2019,02,07,04,29,-3.00
2019,02,07,04,30,-3.00
2019,02,07,04,31,-3.00
2019,02,07,04,32,-3.00
2019,02,07,04,33,-3.00
2019,02,07,04,34,-3.00
2019,02,07,04,35,-3.00
2019,02,07,04,36,-3.00
2019,02,07,04,37,-3.00
2019,02,07,04,38,-3.00
2019,02,07,04,39,-3.10
2019,02,07,04,40,-3.00
2019,02,07,04,41,-3.00
2019,02,07,04,42,-3.00
2019,02,07,04,43,-3.00
2019,02,07,04,44,-3.00
2019,02,07,04,45,-3.00
2019,02,07,04,46,-3.00
2019,02,07,04,47,-3.00
2019,02,07,04,48,-3.00
2019,02,07,04,49,-3.00
2019,02,07,04,50,-3.00
2019,02,07,04,51,-3.00
2019,02,07,04,52,-2.90
2019,02,07,04,53,-2.90
2019,02,07,04,54,-2.90
2019,02,07,04,55,-2.90
2019,02,07,04,56,-2.80
2019,02,07,04,57,-2.80
2019,02,07,04,58,-2.80
2019,02,07,04,59,-2.80
2019,02,07,05,00,-2.80
2019,02,07,05,01,-2.80
2019,02,07,05,02,-2.80
2019,02,07,05,03,-2.80
2019,02,07,05,04,-2.90
2019,02,07,05,05,-2.90
2019,02,07,05,06,-2.90
2019,02,07,05,07,-2.90
2019,02,07,05,08,-2.90
2019,02,07,05,09,-2.90
2019,02,07,05,10,-2.90
2019,02,07,05,11,-2.90
2019,02,07,05,12,-2.90
2019,02,07,05,13,-2.90
2019,02,07,05,14,-2.90
2019,02,07,05,15,-2.90
2019,02,07,05,16,-3.00
2019,02,07,05,17,-3.00
2019,02,07,05,18,-3.10
2019,02,07,05,19,-3.10
2019,02,07,05,20,-3.10
2019,02,07,05,21,-3.10
2019,02,07,05,22,-3.10
2019,02,07,05,23,-3.10
2019,02,07,05,24,-3.10
2019,02,07,05,25,-3.10
2019,02,07,05,26,-3.10
2019,02,07,05,27,-3.10
2019,02,07,09,59,-0.20
2019,02,07,10,00,-0.20
2019,02,07,10,01,-0.10
2019,02,07,10,02,-0.10
2019,02,07,10,03,-0.10
2019,02,07,10,04,0.00
2019,02,07,10,05,0.00
2019,02,07,10,06,0.10
2019,02,07,10,07,0.20
2019,02,07,10,08,0.20
2019,02,07,10,09,0.20
2019,02,07,10,10,0.30
2019,02,07,10,11,0.30
2019,02,07,10,12,0.40
2019,02,07,10,13,0.40
2019,02,07,10,14,0.40
2019,02,07,10,15,0.40
2019,02,07,10,16,0.50
2019,02,07,10,17,0.50
2019,02,07,10,18,0.50
2019,02,07,10,19,0.60
2019,02,07,10,20,0.60
2019,02,07,10,21,0.60
2019,02,07,10,22,0.60
2019,02,07,10,23,0.60
2019,02,07,10,24,0.60
2019,02,07,10,25,0.60
2019,02,07,10,26,0.60
2019,02,07,10,27,0.60
2019,02,07,10,28,0.60
2019,02,07,10,29,0.60
2019,02,07,10,30,0.60
2019,02,07,10,31,0.60
2019,02,07,10,32,0.60
2019,02,07,10,33,0.60
2019,02,07,10,34,0.70
2019,02,07,10,35,0.70
2019,02,07,10,36,0.70
2019,02,07,10,37,0.80
2019,02,07,10,38,0.80
2019,02,07,10,39,0.80
2019,02,07,10,40,0.90
2019,02,07,10,41,0.90
2019,02,07,10,42,0.90
2019,02,07,10,43,1.00
2019,02,07,10,44,1.00
2019,02,07,10,45,1.10
2019,02,07,10,46,1.10
2019,02,07,10,47,1.10
2019,02,07,10,48,1.20
2019,02,07,10,49,1.20
2019,02,07,10,50,1.20
2019,02,07,10,51,1.20
2019,02,07,10,52,1.20
2019,02,07,10,53,1.20
2019,02,07,10,54,1.20
2019,02,07,10,55,1.20
2019,02,07,10,56,1.20
2019,02,07,10,57,1.20
2019,02,07,10,58,1.20
2019,02,07,10,59,1.20
2019,02,07,11,00,1.20
2019,02,07,11,01,1.20
2019,02,07,11,02,1.20
2019,02,07,11,03,1.20
2019,02,07,11,04,1.20
2019,02,07,11,05,1.20
2019,02,07,11,06,1.20
2019,02,07,11,07,1.20
2019,02,07,11,08,1.20
2019,02,07,11,09,1.20
2019,02,07,11,10,1.30
2019,02,07,11,11,1.30
2019,02,07,11,12,1.30
2019,02,07,11,13,1.30
2019,02,07,11,14,1.30
2019,02,07,11,15,1.30
2019,02,07,11,16,1.30
2019,02,07,11,17,1.30
2019,02,07,11,18,1.30
2019,02,07,11,19,1.30
2019,02,07,11,20,1.30
2019,02,07,11,21,1.30
2019,02,07,11,22,1.30
2019,02,07,11,23,1.30
2019,02,07,11,24,1.30
2019,02,07,11,25,1.30
2019,02,07,11,26,1.30
2019,02,07,11,27,1.30
2019,02,07,11,28,1.30
2019,02,07,11,29,1.30
2019,02,07,11,30,1.30
2019,02,07,11,31,1.20
2019,02,07,11,32,1.20
2019,02,07,11,33,1.20
2019,02,07,11,34,1.20
2019,02,07,11,35,1.20
2019,02,07,11,36,1.20
2019,02,07,11,37,1.20
2019,02,07,11,38,1.20
2019,02,07,11,39,1.20
2019,02,07,11,40,1.20
2019,02,07,11,41,1.20
2019,02,07,11,42,1.20
2019,02,07,11,43,1.30
2019,02,07,11,44,1.30
2019,02,07,11,45,1.30
2019,02,07,11,46,1.30
2019,02,07,11,47,1.30
2019,02,07,11,48,1.40
2019,02,07,11,49,1.40
2019,02,07,11,50,1.40
2019,02,07,11,51,1.50
2019,02,07,11,52,1.50
2019,02,07,11,53,1.50
2019,02,07,11,54,1.60
2019,02,07,11,55,1.60
2019,02,07,11,56,1.60
2019,02,07,11,57,1.60
2019,02,07,11,58,1.60
2019,02,07,11,59,1.60
2019,02,07,12,00,1.60
2019,02,07,12,01,1.70
2019,02,07,12,02,1.70
2019,02,07,12,03,1.70
2019,02,07,12,04,1.70
2019,02,07,12,05,1.70
2019,02,07,12,06,1.80
2019,02,07,12,07,1.80
2019,02,07,12,08,1.80
2019,02,07,12,09,1.80
2019,02,07,12,10,1.80
2019,02,07,12,11,1.80
2019,02,07,12,12,1.80
2019,02,07,12,13,1.80
2019,02,07,12,14,1.80
2019,02,07,12,15,1.80
2019,02,07,12,16,1.80
2019,02,07,12,17,1.80
2019,02,07,12,18,1.80
2019,02,07,12,19,1.80
2019,02,07,12,20,1.80
2019,02,07,12,21,1.80
2019,02,07,12,22,1.80
2019,02,07,12,23,1.80
2019,02,07,12,24,1.80
2019,02,07,12,25,1.80
2019,02,07,12,26,1.80
2019,02,07,12,27,1.90
2019,02,07,12,28,1.90
2019,02,07,12,29,1.90
2019,02,07,12,30,1.90
2019,02,07,12,31,1.90
2019,02,07,12,32,1.90
2019,02,07,12,33,1.90
2019,02,07,12,34,1.90
2019,02,07,12,35,1.90
2019,02,07,12,36,2.00
2019,02,07,12,37,2.00
2019,02,07,12,38,2.00
2019,02,07,12,39,2.00
2019,02,07,12,40,2.00
2019,02,07,12,41,2.00
2019,02,07,12,42,2.10
2019,02,07,12,43,2.10
2019,02,07,12,44,2.20
2019,02,07,12,45,2.20
2019,02,07,12,46,2.20
2019,02,07,12,47,2.20
2019,02,07,12,48,2.20
2019,02,07,12,49,2.20
2019,02,07,12,50,2.20
2019,02,07,12,51,2.20
2019,02,07,12,52,2.20
2019,02,07,12,53,2.20
2019,02,07,12,54,2.20
2019,02,07,12,55,2.20
2019,02,07,12,56,2.20
2019,02,07,12,57,2.20
2019,02,07,12,58,2.20
2019,02,07,12,59,2.20
2019,02,07,13,00,2.20
2019,02,07,13,01,2.20
2019,02,07,13,02,2.20
2019,02,07,13,03,2.30
2019,02,07,13,04,2.40
2019,02,07,13,05,2.40
2019,02,07,13,06,2.40
2019,02,07,13,07,2.50
2019,02,07,13,08,2.40
2019,02,07,13,09,2.50
2019,02,07,13,10,2.50
2019,02,07,13,11,2.50
2019,02,07,13,12,2.50
2019,02,07,13,13,2.50
2019,02,07,13,14,2.50
2019,02,07,13,15,2.50
2019,02,07,13,16,2.60
2019,02,07,13,17,2.60
2019,02,07,13,18,2.60
2019,02,07,13,19,2.50
2019,02,07,13,20,2.50
2019,02,07,13,21,2.50
2019,02,07,13,22,2.50
2019,02,07,13,23,2.50
2019,02,07,13,24,2.50
2019,02,07,13,25,2.50
2019,02,07,13,26,2.50
2019,02,07,13,27,2.50
2019,02,07,13,28,2.40
2019,02,07,13,29,2.40
2019,02,07,13,30,2.40
2019,02,07,13,31,2.50
2019,02,07,13,32,2.60
2019,02,07,13,33,2.60
2019,02,07,13,34,2.60
2019,02,07,13,35,2.70
2019,02,07,13,36,2.70
2019,02,07,13,37,2.70
2019,02,07,13,38,2.80
2019,02,07,13,39,2.80
2019,02,07,13,40,2.80
2019,02,07,13,41,2.80
2019,02,07,13,42,2.90
2019,02,07,13,43,2.90
2019,02,07,13,44,2.80
2019,02,07,13,45,2.80
2019,02,07,13,46,2.80
2019,02,07,13,47,2.80
2019,02,07,13,48,2.80
2019,02,07,13,49,2.80
2019,02,07,13,50,2.80
2019,02,07,13,51,2.80
2019,02,07,13,52,2.80
2019,02,07,13,53,2.90
2019,02,07,13,54,3.00
2019,02,07,13,55,3.00
2019,02,07,13,56,3.10
2019,02,07,13,57,3.10
2019,02,07,13,58,3.10
2019,02,07,13,59,3.10
2019,02,07,14,00,3.10
2019,02,07,14,01,3.10
2019,02,07,14,02,3.20
2019,02,07,14,03,3.10
2019,02,07,14,04,3.10
2019,02,07,14,05,3.10
2019,02,07,14,06,3.10
2019,02,07,14,07,3.10
2019,02,07,14,08,3.10
2019,02,07,14,09,3.20
2019,02,07,14,10,3.20
2019,02,07,14,11,3.20
2019,02,07,14,12,3.20
2019,02,07,14,13,3.20
2019,02,07,14,14,3.20
2019,02,07,14,15,3.20
2019,02,07,14,16,3.20
2019,02,07,14,17,3.20
2019,02,07,14,18,3.20
2019,02,07,14,19,3.20
2019,02,07,14,20,3.20
2019,02,07,14,21,3.20
2019,02,07,14,22,3.20
2019,02,07,14,23,3.10
2019,02,07,14,24,3.10
2019,02,07,14,25,3.00
2019,02,07,14,26,2.90
2019,02,07,14,27,2.90
2019,02,07,14,28,2.90
2019,02,07,14,29,2.80
2019,02,07,14,30,2.80
2019,02,07,14,31,2.70
2019,02,07,14,32,2.80
2019,02,07,14,33,2.80
2019,02,07,14,34,2.80
2019,02,07,14,35,2.80
2019,02,07,14,36,2.80
2019,02,07,14,37,2.80
2019,02,07,14,38,2.80
2019,02,07,14,39,2.80
2019,02,07,14,40,2.80
2019,02,07,14,41,2.80
2019,02,07,14,42,2.80
2019,02,07,14,43,2.80
2019,02,07,14,44,2.80
2019,02,07,14,45,2.80
2019,02,07,14,46,2.80
2019,02,07,14,47,2.80
2019,02,07,14,48,2.80
2019,02,07,14,49,2.80
2019,02,07,14,50,2.80
2019,02,07,14,51,2.70
2019,02,07,14,52,2.70
2019,02,07,14,53,2.70
2019,02,07,14,54,2.70
2019,02,07,14,55,2.70
2019,02,07,14,56,2.70
2019,02,07,14,57,2.70
2019,02,07,14,58,2.70
2019,02,07,14,59,2.80
2019,02,07,15,00,2.80
2019,02,07,15,01,2.80
2019,02,07,15,02,2.80
2019,02,07,15,03,2.80
2019,02,07,15,04,2.70
2019,02,07,15,05,2.70
2019,02,07,15,06,2.60
2019,02,07,15,07,2.60
2019,02,07,15,08,2.70
2019,02,07,15,09,2.70
2019,02,07,15,10,2.60
2019,02,07,15,11,2.60
2019,02,07,15,12,2.50
2019,02,07,15,13,2.50
2019,02,07,15,14,2.50
2019,02,07,15,15,2.50
2019,02,07,15,16,2.50
2019,02,07,15,17,2.50
2019,02,07,15,18,2.50
2019,02,07,15,19,2.50
2019,02,07,15,20,2.50
2019,02,07,15,21,2.50
2019,02,07,15,22,2.40
2019,02,07,15,23,2.40
2019,02,07,15,24,2.40
2019,02,07,15,25,2.40
2019,02,07,15,26,2.40
2019,02,07,15,27,2.40
2019,02,07,15,28,2.40
2019,02,07,15,29,2.40
2019,02,07,15,30,2.40
2019,02,07,15,31,2.40
2019,02,07,15,32,2.40
2019,02,07,15,33,2.40
2019,02,07,15,34,2.50
2019,02,07,15,35,2.50
2019,02,07,15,36,2.50
2019,02,07,15,37,2.50
2019,02,07,15,38,2.50
2019,02,07,15,39,2.50
2019,02,07,15,40,2.50
2019,02,07,15,41,2.50
2019,02,07,15,42,2.60
2019,02,07,15,43,2.60
2019,02,07,15,44,2.60
2019,02,07,15,45,2.60
2019,02,07,15,46,2.60
2019,02,07,15,47,2.50
2019,02,07,15,48,2.50
2019,02,07,15,49,2.50
2019,02,07,15,50,2.50
2019,02,07,15,51,2.50
2019,02,07,15,52,2.50
2019,02,07,15,53,2.50
2019,02,07,15,54,2.50
2019,02,07,15,55,2.50
2019,02,07,15,56,2.50
2019,02,07,15,57,2.50
2019,02,07,15,58,2.60
2019,02,07,15,59,2.60
2019,02,07,16,00,2.60
2019,02,07,16,01,2.60
2019,02,07,16,02,2.50
2019,02,07,16,03,2.50
2019,02,07,16,04,2.50
2019,02,07,16,05,2.50
2019,02,07,16,06,2.50
2019,02,07,16,07,2.40
2019,02,07,16,08,2.40
2019,02,07,16,09,2.40
2019,02,07,16,10,2.40
2019,02,07,16,11,2.40
2019,02,07,16,12,2.40
2019,02,07,16,13,2.40
2019,02,07,16,14,2.40
2019,02,07,16,15,2.50
2019,02,07,16,16,2.50
2019,02,07,16,17,2.50
2019,02,07,16,18,2.50
2019,02,07,16,19,2.60
2019,02,07,16,20,2.60
2019,02,07,16,21,2.60
2019,02,07,16,22,2.60
2019,02,07,16,23,2.60
2019,02,07,16,24,2.60
2019,02,07,16,25,2.60
2019,02,07,16,26,2.60
2019,02,07,16,27,2.60
2019,02,07,16,28,2.60
2019,02,07,16,29,2.60
2019,02,07,16,30,2.60
2019,02,07,16,31,2.60
2019,02,07,16,32,2.60
2019,02,07,16,33,2.60
2019,02,07,16,34,2.60
2019,02,07,16,35,2.60
2019,02,07,16,36,2.60
2019,02,07,16,37,2.60
2019,02,07,16,38,2.60
2019,02,07,16,39,2.60
2019,02,07,16,40,2.60
2019,02,07,16,41,2.60
2019,02,07,16,42,2.60
2019,02,07,16,43,2.60
2019,02,07,16,44,2.60
2019,02,07,16,45,2.50
2019,02,07,16,46,2.50
2019,02,07,16,47,2.50
2019,02,07,16,48,2.50
2019,02,07,16,49,2.50
2019,02,07,16,50,2.50
2019,02,07,16,51,2.50
2019,02,07,16,52,2.50
2019,02,07,16,53,2.40
2019,02,07,16,54,2.40
2019,02,07,16,55,2.40
2019,02,07,16,56,2.40
2019,02,07,16,57,2.40
2019,02,07,16,58,2.40
2019,02,07,16,59,2.40
2019,02,07,17,00,2.40
2019,02,07,17,01,2.40
2019,02,07,17,02,2.40
2019,02,07,17,03,2.30
2019,02,07,17,04,2.30
2019,02,07,17,05,2.30
2019,02,07,17,06,2.30
2019,02,07,17,07,2.30
2019,02,07,17,08,2.30
2019,02,07,17,09,2.30
2019,02,07,17,10,2.30
2019,02,07,17,11,2.30
2019,02,07,17,12,2.30
2019,02,07,17,13,2.30
2019,02,07,17,14,2.30
2019,02,07,17,15,2.30
2019,02,07,17,16,2.30
2019,02,07,17,17,2.30
2019,02,07,17,18,2.20
2019,02,07,17,19,2.20
2019,02,07,17,20,2.20
2019,02,07,17,21,2.20
2019,02,07,17,22,2.20
2019,02,07,17,23,2.20
2019,02,07,17,24,2.20
2019,02,07,17,25,2.20
2019,02,07,17,26,2.20
2019,02,07,17,27,2.20
2019,02,07,17,28,2.20
2019,02,07,17,29,2.20
2019,02,07,17,30,2.20
2019,02,07,17,31,2.20
2019,02,07,17,32,2.20
2019,02,07,17,33,2.20
2019,02,07,17,34,2.20
2019,02,07,17,35,2.20
2019,02,07,17,36,2.20
2019,02,07,17,37,2.20
2019,02,07,17,38,2.20
2019,02,07,17,39,2.20
2019,02,07,17,40,2.20
2019,02,07,17,41,2.20
2019,02,07,17,42,2.20
2019,02,07,17,43,2.20
2019,02,07,17,44,2.20
2019,02,07,17,45,2.20
2019,02,07,17,46,2.10
2019,02,07,17,47,2.10
2019,02,07,17,48,2.10
2019,02,07,17,49,2.10
2019,02,07,17,50,2.10
2019,02,07,17,51,2.10
2019,02,07,17,52,2.10
2019,02,07,17,53,2.10
2019,02,07,17,54,2.10
2019,02,07,17,55,2.10
2019,02,07,17,56,2.10
2019,02,07,17,57,2.10
2019,02,07,17,58,2.10
2019,02,07,17,59,2.00
2019,02,07,18,00,2.00
2019,02,07,18,01,2.00
2019,02,07,18,02,2.00
2019,02,07,18,03,2.00
2019,02,07,18,04,2.00
2019,02,07,18,05,1.90
2019,02,07,18,06,1.90
2019,02,07,18,07,1.90
2019,02,07,18,08,1.90
2019,02,07,18,09,1.90
2019,02,07,18,10,1.90
2019,02,07,18,11,1.90
2019,02,07,18,12,1.90
2019,02,07,18,13,1.90
2019,02,07,18,14,1.90
2019,02,07,18,15,1.90
2019,02,07,18,16,1.90
2019,02,07,18,17,1.90
2019,02,07,18,18,1.90
2019,02,07,18,19,1.90
2019,02,07,18,20,1.90
2019,02,07,18,21,1.90
2019,02,07,18,22,1.90
2019,02,07,18,23,1.80
2019,02,07,18,24,1.90
2019,02,07,18,25,1.80
2019,02,07,18,26,1.80
2019,02,07,18,27,1.80
2019,02,07,18,28,1.80
2019,02,07,18,29,1.80
2019,02,07,18,30,1.80
2019,02,07,18,31,1.80
2019,02,07,18,32,1.80
2019,02,07,18,33,1.80
2019,02,07,18,34,1.80
2019,02,07,18,35,1.80
2019,02,07,18,36,1.80
2019,02,07,18,37,1.80
2019,02,07,18,38,1.80
2019,02,07,18,39,1.80
2019,02,07,18,40,1.80
2019,02,07,18,41,1.80
2019,02,07,18,42,1.80
2019,02,07,18,43,1.80
2019,02,07,18,44,1.70
2019,02,07,18,45,1.70
2019,02,07,18,46,1.70
2019,02,07,18,47,1.70
2019,02,07,18,48,1.70
2019,02,07,18,49,1.70
2019,02,07,18,50,1.70
2019,02,07,18,51,1.70
2019,02,07,18,52,1.70
2019,02,07,18,53,1.70
2019,02,07,18,54,1.70
2019,02,07,18,55,1.70
2019,02,07,18,56,1.70
2019,02,07,18,57,1.70
2019,02,07,18,58,1.70
2019,02,07,18,59,1.70
2019,02,07,19,00,1.70
2019,02,07,19,01,1.70
2019,02,07,19,02,1.70
2019,02,07,19,03,1.70
2019,02,07,19,04,1.60
2019,02,07,19,05,1.70
2019,02,07,19,06,1.60
2019,02,07,19,07,1.60
2019,02,07,19,08,1.60
2019,02,07,19,09,1.60
2019,02,07,19,10,1.60
2019,02,07,19,11,1.60
2019,02,07,19,12,1.60
2019,02,07,19,13,1.60
2019,02,07,19,14,1.60
2019,02,07,19,15,1.60
2019,02,07,19,16,1.60
2019,02,07,19,17,1.60
2019,02,07,19,18,1.60
2019,02,07,19,19,1.60
2019,02,07,19,20,1.60
2019,02,07,19,21,1.60
2019,02,07,19,22,1.60
2019,02,07,19,23,1.60
2019,02,07,19,24,1.60
2019,02,07,19,25,1.60
2019,02,07,19,26,1.50
2019,02,07,19,27,1.50
2019,02,07,19,28,1.50
2019,02,07,19,29,1.50
2019,02,07,19,30,1.50
2019,02,07,19,31,1.50
2019,02,07,19,32,1.50
2019,02,07,19,33,1.50
2019,02,07,19,34,1.50
2019,02,07,19,35,1.50
2019,02,07,19,36,1.50
2019,02,07,19,37,1.50
2019,02,07,19,38,1.50
2019,02,07,19,39,1.50
2019,02,07,19,40,1.50
2019,02,07,19,41,1.50
2019,02,07,19,42,1.50
2019,02,07,19,43,1.50
2019,02,07,19,44,1.50
2019,02,07,19,45,1.50
2019,02,07,19,46,1.50
2019,02,07,19,47,1.50
2019,02,07,19,48,1.50
2019,02,07,19,49,1.50
2019,02,07,19,50,1.50
2019,02,07,19,51,1.50
2019,02,07,19,52,1.50
2019,02,07,19,53,1.50
2019,02,07,19,54,1.50
2019,02,07,19,55,1.50
2019,02,07,19,56,1.50
2019,02,07,19,57,1.50
2019,02,07,19,58,1.50
2019,02,07,19,59,1.50
2019,02,07,20,00,1.50
2019,02,07,20,01,1.50
2019,02,07,20,02,1.50
2019,02,07,20,03,1.50
2019,02,07,20,04,1.50
2019,02,07,20,05,1.50
2019,02,07,20,06,1.50
2019,02,07,20,07,1.50
2019,02,07,20,08,1.50
2019,02,07,20,09,1.50
2019,02,07,20,10,1.50
2019,02,07,20,11,1.50
2019,02,07,20,12,1.50
2019,02,07,20,13,1.50
2019,02,07,20,14,1.40
2019,02,07,20,15,1.40
2019,02,07,20,16,1.40
2019,02,07,20,17,1.40
2019,02,07,20,18,1.40
2019,02,07,20,19,1.40
2019,02,07,20,20,1.40
2019,02,07,20,21,1.50
2019,02,07,20,22,1.50
2019,02,07,20,23,1.50
2019,02,07,20,24,1.50
2019,02,07,20,25,1.50
2019,02,07,20,26,1.50
2019,02,07,20,27,1.50
2019,02,07,20,28,1.50
2019,02,07,20,29,1.50
2019,02,07,20,30,1.50
2019,02,07,20,31,1.50
2019,02,07,20,32,1.50
2019,02,07,20,33,1.50
2019,02,07,20,34,1.50
2019,02,07,20,35,1.50
2019,02,07,20,36,1.50
2019,02,07,20,37,1.50
2019,02,07,20,38,1.50
2019,02,07,20,39,1.50
2019,02,07,20,40,1.50
2019,02,07,20,41,1.50
2019,02,07,20,42,1.50
2019,02,07,20,43,1.50
2019,02,07,20,44,1.50
2019,02,07,20,45,1.50
2019,02,07,20,46,1.50
2019,02,07,20,47,1.50
2019,02,07,20,48,1.50
2019,02,07,20,49,1.50
2019,02,07,20,50,1.50
2019,02,07,20,51,1.50
2019,02,07,20,52,1.50
2019,02,07,20,53,1.50
2019,02,07,20,54,1.50
2019,02,07,20,55,1.50
2019,02,07,20,56,1.50
2019,02,07,20,57,1.50
2019,02,07,20,58,1.50
2019,02,07,20,59,1.50
2019,02,07,21,00,1.50
2019,02,07,21,01,1.50
2019,02,07,21,02,1.50
2019,02,07,21,03,1.50
2019,02,07,21,04,1.50
2019,02,07,21,05,1.40
2019,02,07,21,06,1.40
2019,02,07,21,07,1.40
2019,02,07,21,08,1.40
2019,02,07,21,09,1.40
2019,02,07,21,10,1.40
2019,02,07,21,11,1.40
2019,02,07,21,12,1.40
2019,02,07,21,13,1.40
2019,02,07,21,14,1.40
2019,02,07,21,15,1.40
2019,02,07,21,16,1.40
2019,02,07,21,17,1.40
2019,02,07,21,18,1.40
2019,02,07,21,19,1.40
2019,02,07,21,20,1.40
2019,02,07,21,21,1.40
2019,02,07,21,22,1.40
2019,02,07,21,23,1.40
2019,02,07,21,24,1.40
2019,02,07,21,25,1.40
2019,02,07,21,26,1.40
2019,02,07,21,27,1.30
2019,02,07,21,28,1.30
2019,02,07,21,29,1.30
2019,02,07,21,30,1.30
2019,02,07,21,31,1.30
2019,02,07,21,32,1.30
2019,02,07,21,33,1.30
2019,02,07,21,34,1.30
2019,02,07,21,35,1.30
2019,02,07,21,36,1.30
2019,02,07,21,37,1.30
2019,02,07,21,38,1.30
2019,02,07,21,39,1.30
2019,02,07,21,40,1.30
2019,02,07,21,41,1.30
2019,02,07,21,42,1.30
2019,02,07,21,43,1.30
2019,02,07,21,44,1.30
2019,02,07,21,45,1.30
2019,02,07,21,46,1.40
2019,02,07,21,47,1.40
2019,02,07,21,48,1.30
2019,02,07,21,49,1.40
2019,02,07,21,50,1.30
2019,02,07,21,51,1.30
2019,02,07,21,52,1.30
2019,02,07,21,53,1.30
2019,02,07,21,54,1.30
2019,02,07,21,55,1.30
2019,02,07,21,56,1.30
2019,02,07,21,57,1.30
2019,02,07,21,58,1.30
2019,02,07,21,59,1.30
2019,02,07,22,00,1.30
2019,02,07,22,01,1.30
2019,02,07,22,02,1.30
2019,02,07,22,03,1.30
2019,02,07,22,04,1.30
2019,02,07,22,05,1.30
2019,02,07,22,06,1.30
2019,02,07,22,07,1.30
2019,02,07,22,08,1.30
2019,02,07,22,09,1.30
2019,02,07,22,10,1.30
2019,02,07,22,11,1.30
2019,02,07,22,12,1.30
2019,02,07,22,13,1.30
2019,02,07,22,14,1.30
2019,02,07,22,15,1.30
2019,02,07,22,16,1.30
2019,02,07,22,17,1.30
2019,02,07,22,18,1.30
2019,02,07,22,19,1.30
2019,02,07,22,20,1.30
2019,02,07,22,21,1.30
2019,02,07,22,22,1.30